Retour au catalogue

PEGASUS R/B

ActifLEO
NORAD 22639·ROCKET BODY·🇺🇸 United States

Lancé Apr 25, 1993 depuis Vandenberg Space Force Base

Loading…

Prochains Passages (prochaines 24 heures)

TLE

FraisSource: Space-Track

Époque: Sep 14, 2026, 09:19 UTC

1 22639U 93026B   26257.38851552  .00000096  00000-0  55239-4 0  9994
2 22639  69.9192 138.6689 0060620  70.5234 290.2426 14.33009481122177

Suivez PEGASUS R/B en temps réel avec AllMySat

Download on the App Store